Date,TemperatureHighF,TemperatureAvgF,TemperatureLowF,DewpointHighF,DewpointAvgF,DewpointLowF,HumidityHigh,HumidityAvg,HumidityLow,PressureMaxIn,PressureMinIn,WindSpeedMaxMPH,WindSpeedAvgMPH,GustSpeedMaxMPH,PrecipitationSumIn
2013-12-1,49.6,38.1,28.0,36.8,31.0,24.0,86,69,50,30.39,30.05,1,0,2,0.00
2013-12-2,50.5,41.2,36.9,37.9,33.7,30.6,75,67,49,30.05,29.90,0,0,2,0.00
2013-12-3,53.2,42.7,37.4,43.7,36.8,32.3,87,74,52,30.03,29.91,2,0,4,0.00
2013-12-4,52.3,44.1,35.4,44.6,39.4,31.4,87,79,65,30.14,30.03,0,0,2,0.00
2013-12-5,56.7,52.3,46.6,56.4,51.7,44.8,99,97,88,30.13,29.96,0,0,1,0.01
2013-12-6,61.2,47.6,35.8,60.7,47.1,34.8,99,97,92,30.18,29.90,4,0,8,0.51
2013-12-7,38.7,33.8,28.2,35.0,29.9,23.1,96,81,63,30.53,30.10,4,0,5,0.34
2013-12-8,29.1,26.7,24.3,27.7,21.0,16.9,93,72,57,30.60,30.34,1,0,2,0.00
2013-12-9,34.9,33.0,28.9,34.0,32.0,27.7,96,95,93,30.35,30.02,2,0,6,0.26
2013-12-10,32.7,30.1,22.5,32.0,28.6,19.1,97,92,81,30.19,29.94,0,0,1,0.07
2013-12-11,31.5,24.2,16.3,22.7,17.4,-99.9,85,68,51,30.38,30.19,4,0,6,0.01
2013-12-12,26.6,21.3,17.2,17.5,10.9,5.7,78,53,32,30.39,30.20,4,0,6,0.01
2013-12-13,34.3,27.2,18.0,19.3,14.3,5.4,56,45,36,30.35,30.17,3,0,5,0.00
2013-12-14,30.2,27.3,24.8,28.4,21.8,18.0,93,73,55,30.44,29.70,5,1,7,0.00
2013-12-15,37.8,32.3,27.0,36.1,28.5,21.8,95,82,58,29.90,29.57,5,1,7,0.99
2013-12-16,30.4,24.7,18.5,23.0,11.8,7.0,67,46,27,30.25,29.89,8,2,15,0.01
2013-12-17,29.5,23.9,19.2,25.9,18.7,13.3,82,73,54,30.23,29.96,2,0,4,0.00
2013-12-18,36.3,27.2,18.3,24.7,19.3,13.4,81,64,45,30.22,29.97,1,0,2,0.04
2013-12-19,46.6,33.8,23.0,32.7,25.5,0.0,80,62,45,30.22,30.06,0,0,0,0.19
2013-12-20,52.0,43.2,35.2,43.4,33.9,28.2,84,62,44,30.12,30.00,0,0,2,0.01
2013-12-21,64.2,54.0,45.5,57.0,49.3,0.0,94,80,63,30.04,29.93,0,0,2,0.00
2013-12-22,67.3,63.5,60.3,62.9,59.8,56.6,91,84,77,30.00,29.84,5,0,8,0.07
2013-12-23,60.4,54.2,40.3,59.6,52.4,33.7,98,92,70,30.20,29.94,1,0,2,0.34
2013-12-24,40.3,33.6,25.5,33.7,23.5,13.2,70,56,46,30.39,30.14,4,0,6,0.01
2013-12-25,27.5,23.7,17.6,15.9,10.7,4.9,54,44,35,30.55,30.40,8,1,13,0.00
2013-12-26,37.6,28.1,20.7,29.7,21.1,14.3,76,66,54,30.43,30.20,1,0,2,0.00
2013-12-27,43.3,31.9,23.2,26.1,21.6,17.6,74,56,34,30.39,30.30,0,0,0,0.00
2013-12-28,55.9,41.2,27.9,32.5,27.2,19.9,71,49,26,30.32,30.11,2,0,2,0.00
2013-12-29,44.1,41.1,38.5,43.1,36.6,29.4,99,80,52,30.11,29.47,3,0,5,0.78
2013-12-30,43.9,36.4,23.5,41.0,30.2,13.4,97,73,47,30.19,29.76,2,0,3,0.01
2013-12-31,33.8,26.4,19.2,26.9,16.0,10.5,68,53,41,30.33,30.08,1,0,2,0.01